Regional Weather Roundup
Issued by NWS Charleston, SC

Current Version | Previous Version | Graphics & Text | Print | Product List | Glossary On
Versions: 1 2 3 4 5 6 7 8 9 10 11 12 13 14 15 16 17 18 19 20 21 22 23 24 25 26 27 28 29 30 31 32 33 34 35 36 37 38 39 40 41 42 43 44 45 46 47 48 49 50
997 ASUS42 KCHS 261727 RWRCHS REGIONAL WEATHER ROUNDUP NATIONAL WEATHER SERVICE CHARLESTON SC 100 PM EDT TUE SEP 26 2017 NOTE: "FAIR" INDICATES FEW OR NO CLOUDS BELOW 12,000 FEET WITH NO SIGNIFICANT WEATHER AND/OR OBSTRUCTIONS TO VISIBILITY. NOT ALL STATIONS ARE QUALITY CONTROLLED. USE DATA WITH CAUTION... ESPECIALLY DEWPOINT OBSERVATIONS. SCZ027-030-031-034>040-042>050-261800- ...SOUTHEAST SOUTH CAROLINA... CITY SKY/WX TMP DP RH WIND PRES REMARKS N CHARLESTON PTSUNNY 86 73 65 N10 29.87F HX 93 WATERFRONT PRK N/A 85 73 67 N8 29.71F HX 92 JOHNS ISLAND N/A 88 73 62 NW8G14 29.87F HX 96 PINOPOLIS N/A 79 73 83 NW7 29.83S MONCKS CORNER FAIR 82 72 69 NW6 29.88F SUMMERVILLE FAIR 86 72 62 N6 29.89F HX 92 BEAUFORT MCAS SUNNY 87 73 62 NW10 29.89F HX 94 BEAUFORT ARPT FAIR 84 72 65 NW9 29.88F HILTON HEAD IS SUNNY 86 70 58 N9 29.90F HX 90 WALTERBORO PTSUNNY 86 72 62 NW9 29.90F HX 92 ALLENDALE NOT AVBL ...SOUTHERN MIDLANDS AND PEE DEE... CITY SKY/WX TMP DP RH WIND PRES REMARKS GEORGETOWN FAIR 79 73 83 N9 29.88S KINGSTREE FAIR 84 72 65 N5 29.88F ORANGEBURG MOSUNNY 85 69 58 N7 29.91F BARNWELL FAIR 88 70 55 CALM 29.91F HX 92 AIKEN FAIR 82 64 54 N8 29.97F MANNING PTSUNNY N/A N/A N/A MISG 29.88F COLUMBIA MOSUNNY 86 68 54 NW3 29.92F SUMTER MOSUNNY 86 70 58 N12G17 29.87F HX 90 FLORENCE MOSUNNY 84 72 67 NE15 29.89F MYRTLE BEACH MOSUNNY 84 72 65 N16 29.85F N MYRTLE BEACH MOSUNNY 83 71 67 N10G18 29.84F $$ GAZ063-065-086>088-099>101-113>116-118-119-134>141-150-261800- ...SOUTHEAST GEORGIA... CITY SKY/WX TMP DP RH WIND PRES REMARKS SAVANNAH ARPT MOSUNNY 89 69 51 N10 29.91F HX 93 HUNTER AAF SUNNY 87 69 56 NW9 29.88F HX 91 FORT STEWART PTSUNNY 86 68 56 NW10 29.90F STATESBORO MOSUNNY 85 64 47 NW8 29.92F SYLVANIA SUNNY 88 70 56 N7 29.92F HX 92 CLAXTON PTSUNNY 85 70 60 NW5 29.92F ...CSRA...CENTRAL AND FAR SOUTHEAST GEORGIA... CITY SKY/WX TMP DP RH WIND PRES REMARKS THOMSON PTSUNNY 83 67 56 NE7 30.01F AUGUSTA-BUSH SUNNY 88 67 49 NW7 29.92F HX 91 AUGUSTA-DANIEL SUNNY 86 65 49 NW7 29.95F SWAINSBORO PTSUNNY 84 70 61 N3 29.96S VIDALIA PTSUNNY 84 68 58 NE8 29.94F EASTMAN FAIR 87 52 30 N7 29.97F HAZLEHURST PTSUNNY 89 52 28 N5 29.92F ALMA MOSUNNY 88 66 48 VRB6 29.93F HX 90 WAYCROSS MOSUNNY 87 63 44 NW7 29.92F JESUP NOT AVBL BAXLEY PTSUNNY 82 64 54 N3 29.92F BRUNSWICK PTSUNNY 82 68 61 NW6 29.92F SAINT SIMONS MOSUNNY 85 70 60 NW7 29.91F $$ SCZ027-028-034-036>038-045-046-048>050-GAZ119-141-261800- ...LAKE AND SUPPLEMENTAL COASTAL OBSERVATIONS... STATION/POSITION TIME TEMP WIND PRES WAVE SWELL AIR SEA DIR/SP/G HT/PER HT/PER/DIR (UTC) (F) (DEG/KT/KT) (MB) (FT/S) (FT/S/D) WINYAH BAY 1645 77 330/ 8 1011.0F LAKE MURRAY 1650 84 CALM / 3 1012.5F ACE BASIN NERRS 1645 86 330/ 2 1012.0S FORT PULASKI 1700 82 81 340/ 10/ 12 1012.7 SAPELO ISLAND 1700 85 CALM 1013.0 $$ ANZ835-935-AMZ111-154-330-350-352-354-370-450-454-472-261800- ...C-MAN AND BUOY OBSERVATIONS... STATION/POSITION TIME TEMP WIND PRES WAVE SWELL AIR SEA DIR/SP/G HT/PER HT/PER/DIR (UTC) (F) (DEG/KT/KT) (MB) (FT/S) (FT/S/D) BUOY 41004 1710 76 81 330/ 12/ 16 1010.7 BUOY 41008 1650 79 81 330/ 10/ 14 1012.4F 4/13 3/ 70/13 FOLLY BEACH CMAN 1700 86 310/ 5/ 7 1012.2F CAPERS NEARSHORE 1708 83 81 20/ 2/ 4 1011.1F FRIPP NEARSHORE 1708 82 330/ 6/ 10 1019.0F STATION/POSITION TIME TEMP WIND PRES WAVE SWELL AIR SEA DIR/SP/G HT/PER HT/PER/DIR (UTC) (F) (DEG/KT/KT) (MB) (FT/S) (FT/S/D) 5E ST. MARYS GA 1700 82 N/A 3/11 2/ 80/11 FRYING PAN BUOY 1710 79 81 330/ 21/ 27 1008.2 BUOY 41025 1650 78 81 360/ 33/ 39 1000.7F 19/14 16/140/14 CAPE LOOKOUT NC 1700 80 360/ 26/ 32 1005.1F BUOY 41002 1650 80 81 270/ 29/ 37 1001.2R 15/ 9 BUOY 41010 1710 310/ 14/ 16 1011.5 ST AUGUSTINE FL 1700 80 82 40/ 9/ 10 1013.5F $$

USA.gov is the U.S. government's official web portal to all federal, state and local government web resources and services.